EJU39EW LFMN-LICJ

Flight info

Callsign EJU39EW
Flight time 1h 28m
Altitude 23000
Route SODRI DCT RAPUR DCT RATAP DCT BTA/N0433F370 DCT DOKAR DCT SUNEV DCT NEMIT DCT TINTO DCT RUVIP DCT RONAB DCT GIANO
Aircraft A320/M-SDE2E3FGHIJ1RWXYZ/LB1

Departure

Time 2026-05-06 17:52
Airport Nice-Côte d'Azur Airport (LFMN)

Arrival

Time 2026-05-06 19:20
Airport Falcone–Borsellino Airport (LICJ)
Time Latitude Longitude Altitude Speed Heading
2026-05-06 17:16 43.66077 7.20692 24 ft 0 kts 297°
2026-05-06 17:42 43.66068 7.20718 22 ft 4 kts 287°
2026-05-06 17:43 43.66064 7.20753 22 ft 4 kts 263°
2026-05-06 17:43 43.66072 7.20785 22 ft 4 kts 224°
2026-05-06 17:43 43.66091 7.20799 22 ft 3 kts 173°
2026-05-06 17:43 43.66094 7.20799 22 ft 0 kts 171°
2026-05-06 17:45 43.66090 7.20800 22 ft 4 kts 171°
2026-05-06 17:45 43.66026 7.20814 22 ft 12 kts 171°
2026-05-06 17:45 43.65971 7.20905 22 ft 17 kts 71°
2026-05-06 17:46 43.66054 7.21027 22 ft 18 kts 45°
2026-05-06 17:46 43.66142 7.21149 22 ft 18 kts 45°
2026-05-06 17:46 43.66231 7.21272 22 ft 18 kts 44°
2026-05-06 17:46 43.66323 7.21396 22 ft 19 kts 45°
2026-05-06 17:47 43.66373 7.21520 22 ft 15 kts 95°
2026-05-06 17:47 43.66321 7.21646 22 ft 13 kts 81°
2026-05-06 17:47 43.66385 7.21738 22 ft 14 kts 46°
2026-05-06 17:47 43.66454 7.21834 22 ft 14 kts 45°
2026-05-06 17:48 43.66525 7.21932 22 ft 15 kts 45°
2026-05-06 17:48 43.66598 7.22033 22 ft 15 kts 45°
2026-05-06 17:48 43.66673 7.22137 22 ft 15 kts 44°
2026-05-06 17:48 43.66751 7.22244 22 ft 16 kts 44°
2026-05-06 17:49 43.66831 7.22352 22 ft 16 kts 45°
2026-05-06 17:49 43.66913 7.22465 22 ft 17 kts 45°
2026-05-06 17:49 43.66997 7.22579 22 ft 17 kts 45°
2026-05-06 17:49 43.66979 7.22715 22 ft 18 kts 135°
2026-05-06 17:50 43.66883 7.22747 24 ft 12 kts 238°
2026-05-06 17:50 43.66813 7.22645 22 ft 19 kts 224°
2026-05-06 17:50 43.66707 7.22559 22 ft 16 kts 170°
2026-05-06 17:50 43.66601 7.22678 22 ft 21 kts 163°
2026-05-06 17:51 43.66513 7.22742 23 ft 15 kts 168°
2026-05-06 17:51 43.66441 7.22680 23 ft 17 kts 224°
2026-05-06 17:51 43.66152 7.22282 26 ft 117 kts 224°
2026-05-06 17:51 43.65366 7.21192 525 ft 179 kts 225°
2026-05-06 17:52 43.64439 7.19907 1876 ft 197 kts 226°
2026-05-06 17:52 43.63450 7.18551 3229 ft 204 kts 227°
2026-05-06 17:52 43.62428 7.17153 4417 ft 212 kts 227°
2026-05-06 17:52 43.61252 7.15808 5608 ft 222 kts 208°
2026-05-06 17:53 43.59706 7.15504 6759 ft 234 kts 173°
2026-05-06 17:53 43.58193 7.16422 8094 ft 241 kts 156°
2026-05-06 17:53 43.56732 7.17579 9370 ft 243 kts 154°
2026-05-06 17:53 43.55319 7.18925 10519 ft 252 kts 141°
2026-05-06 17:54 43.54116 7.20735 11659 ft 258 kts 135°
2026-05-06 17:54 43.52918 7.22605 12843 ft 262 kts 136°
2026-05-06 17:54 43.51695 7.24492 13986 ft 266 kts 136°
2026-05-06 17:54 43.50452 7.26407 15029 ft 270 kts 136°
2026-05-06 17:55 43.49166 7.28378 16065 ft 275 kts 137°
2026-05-06 17:55 43.47864 7.30338 17077 ft 279 kts 142°
2026-05-06 17:55 43.46328 7.31982 17883 ft 287 kts 155°
2026-05-06 17:55 43.44507 7.33367 18340 ft 311 kts 158°
2026-05-06 17:56 43.42530 7.34839 18712 ft 336 kts 158°
2026-05-06 17:56 43.40410 7.36418 19149 ft 355 kts 157°
2026-05-06 17:56 43.38220 7.38068 19886 ft 362 kts 158°
2026-05-06 17:56 43.36006 7.39754 20782 ft 365 kts 158°
2026-05-06 17:57 43.33779 7.41459 21699 ft 368 kts 159°
2026-05-06 17:57 43.31529 7.43178 22503 ft 372 kts 159°
2026-05-06 17:57 43.29267 7.44903 22792 ft 372 kts 159°
2026-05-06 17:57 43.27024 7.46616 22867 ft 361 kts 159°
2026-05-06 17:58 43.24887 7.48260 22886 ft 342 kts 159°
2026-05-06 17:58 43.22853 7.49823 22884 ft 330 kts 160°
2026-05-06 17:58 43.20859 7.51336 22884 ft 326 kts 160°
2026-05-06 17:58 43.18869 7.52826 22884 ft 325 kts 161°
2026-05-06 17:59 43.16858 7.54324 22900 ft 325 kts 160°
2026-05-06 17:59 43.14871 7.55891 22985 ft 349 kts 155°
2026-05-06 17:59 43.12881 7.58120 23277 ft 383 kts 143°
2026-05-06 17:59 43.11164 7.61092 23584 ft 413 kts 128°
2026-05-06 18:00 43.09939 7.64733 24254 ft 430 kts 114°
2026-05-06 18:00 43.09297 7.68778 25078 ft 438 kts 105°
2026-05-06 18:00 43.08802 7.72885 25968 ft 436 kts 106°
2026-05-06 18:00 43.08305 7.76966 26851 ft 435 kts 106°
2026-05-06 18:01 43.07803 7.81045 27749 ft 434 kts 107°
2026-05-06 18:01 43.07319 7.85118 28654 ft 434 kts 106°
2026-05-06 18:01 43.06854 7.89190 29558 ft 433 kts 106°
2026-05-06 18:01 43.06398 7.93265 30391 ft 432 kts 106°
2026-05-06 18:02 43.05945 7.97318 31123 ft 431 kts 106°
2026-05-06 18:02 43.05488 8.01364 31957 ft 428 kts 107°
2026-05-06 18:02 43.05030 8.05385 32646 ft 429 kts 107°
2026-05-06 18:02 43.04562 8.09456 32875 ft 428 kts 107°
2026-05-06 18:03 43.03632 8.17471 32918 ft 426 kts 107°
2026-05-06 18:03 43.02690 8.25460 32919 ft 426 kts 107°
2026-05-06 18:04 43.01901 8.32099 32921 ft 426 kts 107°
2026-05-06 18:04 43.00308 8.39693 32918 ft 406 kts 125°
2026-05-06 18:05 42.97684 8.46444 32922 ft 402 kts 128°
2026-05-06 18:05 42.95041 8.53181 32920 ft 402 kts 128°
2026-05-06 18:06 42.92399 8.59912 32910 ft 402 kts 128°
2026-05-06 18:06 42.89735 8.66665 32878 ft 402 kts 127°
2026-05-06 18:07 42.87083 8.73371 32883 ft 402 kts 127°
2026-05-06 18:07 42.84444 8.80049 32913 ft 403 kts 127°
2026-05-06 18:08 42.81760 8.86798 32918 ft 402 kts 127°
2026-05-06 18:08 42.79086 8.93485 32922 ft 402 kts 127°
2026-05-06 18:09 42.76418 9.00163 32919 ft 402 kts 127°
2026-05-06 18:09 42.73747 9.06840 32920 ft 402 kts 127°
2026-05-06 18:10 42.71077 9.13502 32897 ft 401 kts 127°
2026-05-06 18:10 42.68402 9.20163 32903 ft 401 kts 127°
2026-05-06 18:11 42.65722 9.26811 32909 ft 401 kts 127°
2026-05-06 18:11 42.63038 9.33455 32897 ft 401 kts 127°
2026-05-06 18:12 42.60352 9.40101 32894 ft 401 kts 127°
2026-05-06 18:12 42.57670 9.46737 32859 ft 403 kts 124°
2026-05-06 18:13 42.55642 9.53947 32912 ft 411 kts 117°
2026-05-06 18:13 42.53723 9.61235 32918 ft 410 kts 117°
2026-05-06 18:14 42.51801 9.68507 32916 ft 410 kts 117°
2026-05-06 18:14 42.49963 9.75831 32914 ft 415 kts 110°
2026-05-06 18:15 42.48805 9.83519 32888 ft 417 kts 108°
2026-05-06 18:15 42.47067 9.90864 32895 ft 406 kts 120°
2026-05-06 18:16 42.44916 9.97916 32898 ft 406 kts 120°
2026-05-06 18:16 42.42762 10.04980 32904 ft 405 kts 120°
2026-05-06 18:17 42.40614 10.12034 32907 ft 405 kts 120°
2026-05-06 18:17 42.38456 10.19079 32913 ft 406 kts 120°
2026-05-06 18:18 42.35695 10.25528 32894 ft 387 kts 139°
2026-05-06 18:18 42.31730 10.30134 32911 ft 371 kts 154°
2026-05-06 18:19 42.27471 10.34070 32909 ft 371 kts 154°
2026-05-06 18:19 42.23211 10.38025 32912 ft 371 kts 154°
2026-05-06 18:20 42.18951 10.41967 32917 ft 371 kts 154°
2026-05-06 18:20 42.14689 10.45909 32924 ft 371 kts 154°
2026-05-06 18:21 42.10444 10.49814 32925 ft 362 kts 154°
2026-05-06 18:21 42.08410 10.51695 32939 ft 348 kts 154°
2026-05-06 18:21 42.06457 10.53502 32937 ft 334 kts 155°
2026-05-06 18:22 42.04582 10.55235 32935 ft 321 kts 155°
2026-05-06 18:22 42.02777 10.56898 32942 ft 309 kts 156°
2026-05-06 18:22 41.99264 10.60108 32944 ft 304 kts 156°
2026-05-06 18:23 41.95762 10.63284 32948 ft 303 kts 156°
2026-05-06 18:23 41.92267 10.66465 32948 ft 303 kts 156°
2026-05-06 18:24 41.88779 10.69657 32948 ft 304 kts 156°
2026-05-06 18:24 41.85257 10.72878 32953 ft 304 kts 156°
2026-05-06 18:25 41.81761 10.76074 32953 ft 304 kts 156°
2026-05-06 18:25 41.78261 10.79251 32953 ft 304 kts 156°
2026-05-06 18:26 41.74756 10.82430 32956 ft 304 kts 156°
2026-05-06 18:26 41.71256 10.85603 32956 ft 304 kts 156°
2026-05-06 18:27 41.67753 10.88781 32942 ft 304 kts 156°
2026-05-06 18:27 41.64260 10.91949 32961 ft 304 kts 156°
2026-05-06 18:28 41.60763 10.95111 32961 ft 303 kts 156°
2026-05-06 18:28 41.57260 10.98261 32964 ft 303 kts 156°
2026-05-06 18:29 41.53758 11.01406 32964 ft 303 kts 156°
2026-05-06 18:29 41.50262 11.04555 32964 ft 303 kts 156°
2026-05-06 18:30 41.46674 11.07380 32968 ft 292 kts 168°
2026-05-06 18:30 41.44784 11.08365 32948 ft 291 kts 168°
2026-05-06 18:30 41.42892 11.09350 32758 ft 294 kts 168°
2026-05-06 18:31 41.41005 11.10339 32646 ft 290 kts 168°
2026-05-06 18:31 41.39138 11.11324 32573 ft 289 kts 168°
2026-05-06 18:31 41.37270 11.12305 32499 ft 288 kts 168°
2026-05-06 18:31 41.35405 11.13283 32327 ft 287 kts 168°
2026-05-06 18:32 41.33546 11.14257 32013 ft 287 kts 168°
2026-05-06 18:32 41.31692 11.15223 31674 ft 286 kts 168°
2026-05-06 18:32 41.29845 11.16183 31357 ft 285 kts 168°
2026-05-06 18:32 41.27998 11.17146 31025 ft 284 kts 168°
2026-05-06 18:33 41.26157 11.18108 30693 ft 284 kts 168°
2026-05-06 18:33 41.24318 11.19063 30380 ft 283 kts 168°
2026-05-06 18:33 41.22485 11.20016 30051 ft 283 kts 168°
2026-05-06 18:33 41.20666 11.20968 29770 ft 280 kts 168°
2026-05-06 18:34 41.18864 11.21913 29480 ft 277 kts 168°
2026-05-06 18:34 41.17078 11.22846 29165 ft 275 kts 168°
2026-05-06 18:34 41.15300 11.23771 28838 ft 274 kts 168°
2026-05-06 18:34 41.13533 11.24687 28538 ft 272 kts 168°
2026-05-06 18:35 41.11780 11.25595 28231 ft 270 kts 168°
2026-05-06 18:35 41.10032 11.26502 27922 ft 269 kts 167°
2026-05-06 18:35 41.08296 11.27405 27628 ft 267 kts 167°
2026-05-06 18:35 41.06569 11.28303 27336 ft 266 kts 167°
2026-05-06 18:36 41.04850 11.29191 27047 ft 265 kts 167°
2026-05-06 18:36 41.03140 11.30077 26750 ft 264 kts 167°
2026-05-06 18:36 41.01437 11.30959 26465 ft 262 kts 167°
2026-05-06 18:36 40.99744 11.31833 26170 ft 261 kts 167°
2026-05-06 18:37 40.98057 11.32703 25890 ft 260 kts 167°
2026-05-06 18:37 40.96942 11.33276 25717 ft 259 kts 167°
2026-05-06 18:37 40.94707 11.34430 25350 ft 257 kts 167°
2026-05-06 18:37 40.93039 11.35289 25073 ft 257 kts 167°
2026-05-06 18:38 40.91377 11.36144 24796 ft 256 kts 166°
2026-05-06 18:38 40.89721 11.36997 24534 ft 255 kts 166°
2026-05-06 18:38 40.88066 11.37848 24269 ft 255 kts 166°
2026-05-06 18:38 40.86417 11.38698 24012 ft 254 kts 166°
2026-05-06 18:39 40.84770 11.39545 23767 ft 254 kts 166°
2026-05-06 18:39 40.83132 11.40387 23508 ft 253 kts 166°
2026-05-06 18:39 40.81495 11.41230 23216 ft 252 kts 166°
2026-05-06 18:40 40.78247 11.42903 22677 ft 249 kts 166°
2026-05-06 18:40 40.76643 11.43730 22424 ft 246 kts 166°
2026-05-06 18:40 40.75062 11.44543 22174 ft 243 kts 166°
2026-05-06 18:40 40.73486 11.45353 21928 ft 242 kts 166°
2026-05-06 18:41 40.72452 11.45883 21766 ft 241 kts 166°
2026-05-06 18:41 40.70896 11.46682 21514 ft 239 kts 166°
2026-05-06 18:41 40.69350 11.47474 21255 ft 238 kts 166°
2026-05-06 18:41 40.67792 11.48273 20994 ft 237 kts 166°
2026-05-06 18:42 40.66281 11.49041 20758 ft 235 kts 166°
2026-05-06 18:42 40.64762 11.49815 20517 ft 234 kts 166°
2026-05-06 18:42 40.63231 11.50600 20260 ft 233 kts 166°
2026-05-06 18:42 40.61726 11.51370 20006 ft 232 kts 166°
2026-05-06 18:43 40.60226 11.52136 19756 ft 231 kts 166°
2026-05-06 18:43 40.58734 11.52897 19512 ft 230 kts 166°
2026-05-06 18:43 40.57248 11.53656 19266 ft 229 kts 166°
2026-05-06 18:43 40.55764 11.54411 19060 ft 227 kts 166°
2026-05-06 18:44 40.54290 11.55163 19000 ft 228 kts 167°
2026-05-06 18:44 40.52810 11.55919 18999 ft 228 kts 167°
2026-05-06 18:44 40.51331 11.56671 19000 ft 228 kts 167°
2026-05-06 18:44 40.49855 11.57421 19000 ft 227 kts 167°
2026-05-06 18:45 40.48377 11.58170 19001 ft 227 kts 167°
2026-05-06 18:45 40.46902 11.58917 19003 ft 227 kts 167°
2026-05-06 18:45 40.45429 11.59663 19001 ft 227 kts 167°
2026-05-06 18:45 40.43952 11.60412 19005 ft 227 kts 167°
2026-05-06 18:46 40.42475 11.61161 19005 ft 227 kts 167°
2026-05-06 18:46 40.41002 11.61912 19007 ft 227 kts 167°
2026-05-06 18:46 40.39525 11.62664 19007 ft 227 kts 167°
2026-05-06 18:46 40.38049 11.63415 19009 ft 228 kts 167°
2026-05-06 18:47 40.36574 11.64163 19007 ft 228 kts 167°
2026-05-06 18:47 40.35099 11.64913 19007 ft 228 kts 167°
2026-05-06 18:47 40.33623 11.65663 19007 ft 227 kts 167°
2026-05-06 18:47 40.32146 11.66409 19010 ft 227 kts 167°
2026-05-06 18:48 40.30637 11.67163 19006 ft 248 kts 167°
2026-05-06 18:48 40.28862 11.68022 19004 ft 294 kts 166°
2026-05-06 18:48 40.26810 11.69019 19011 ft 335 kts 165°
2026-05-06 18:48 40.24514 11.70156 19006 ft 370 kts 164°
2026-05-06 18:49 40.22038 11.71406 19004 ft 389 kts 163°
2026-05-06 18:49 40.19492 11.72714 19009 ft 395 kts 163°
2026-05-06 18:49 40.16937 11.74037 19005 ft 396 kts 163°
2026-05-06 18:49 40.14375 11.75356 19012 ft 396 kts 163°
2026-05-06 18:50 40.11801 11.76667 19012 ft 396 kts 163°
2026-05-06 18:50 40.09237 11.77957 19012 ft 396 kts 164°
2026-05-06 18:50 40.06662 11.79245 19009 ft 396 kts 164°
2026-05-06 18:50 40.04097 11.80530 19017 ft 396 kts 164°
2026-05-06 18:51 40.01527 11.81818 19017 ft 396 kts 164°
2026-05-06 18:51 39.98953 11.83105 19014 ft 396 kts 164°
2026-05-06 18:51 39.96362 11.84396 19018 ft 408 kts 164°
2026-05-06 18:51 39.93654 11.85739 19019 ft 423 kts 163°
2026-05-06 18:52 39.90835 11.87139 19015 ft 444 kts 163°
2026-05-06 18:52 39.87910 11.88597 19018 ft 453 kts 163°
2026-05-06 18:52 39.84970 11.90107 19020 ft 457 kts 162°
2026-05-06 18:52 39.82021 11.91735 19444 ft 460 kts 161°
2026-05-06 18:53 39.79086 11.93426 19904 ft 462 kts 160°
2026-05-06 18:53 39.76146 11.95140 20333 ft 464 kts 160°
2026-05-06 18:53 39.73203 11.96849 20740 ft 465 kts 161°
2026-05-06 18:53 39.70236 11.98550 21125 ft 466 kts 161°
2026-05-06 18:54 39.67254 12.00235 21485 ft 468 kts 161°
2026-05-06 18:54 39.64262 12.01912 21823 ft 469 kts 161°
2026-05-06 18:54 39.61263 12.03582 22121 ft 470 kts 162°
2026-05-06 18:54 39.58252 12.05251 22406 ft 471 kts 162°
2026-05-06 18:55 39.55241 12.06925 22650 ft 472 kts 162°
2026-05-06 18:55 39.52224 12.08611 22861 ft 473 kts 162°
2026-05-06 18:55 39.49200 12.10305 23047 ft 474 kts 162°
2026-05-06 18:55 39.46173 12.11998 23198 ft 475 kts 162°
2026-05-06 18:56 39.43137 12.13694 23346 ft 475 kts 162°
2026-05-06 18:56 39.40198 12.15372 22323 ft 445 kts 161°
2026-05-06 18:56 39.37342 12.17024 20809 ft 453 kts 162°
2026-05-06 18:56 39.34466 12.18651 20351 ft 444 kts 162°
2026-05-06 18:57 39.31720 12.20184 20111 ft 417 kts 163°
2026-05-06 18:57 39.29120 12.21613 19865 ft 395 kts 163°
2026-05-06 18:57 39.26649 12.22961 19623 ft 376 kts 164°
2026-05-06 18:57 39.24293 12.24244 19392 ft 360 kts 164°
2026-05-06 18:58 39.22033 12.25477 19155 ft 345 kts 165°
2026-05-06 18:58 39.19864 12.26662 18923 ft 332 kts 165°
2026-05-06 18:58 39.17781 12.27805 18692 ft 320 kts 165°
2026-05-06 18:58 39.15761 12.28918 18463 ft 310 kts 165°
2026-05-06 18:59 39.13814 12.29996 18219 ft 300 kts 166°
2026-05-06 18:59 39.11926 12.31042 17950 ft 291 kts 166°
2026-05-06 18:59 39.10090 12.32056 17686 ft 283 kts 166°
2026-05-06 18:59 39.08302 12.33042 17420 ft 276 kts 166°
2026-05-06 19:00 39.06556 12.34003 17152 ft 270 kts 166°
2026-05-06 19:00 39.04847 12.34940 16905 ft 264 kts 166°
2026-05-06 19:00 39.03178 12.35856 16654 ft 259 kts 166°
2026-05-06 19:00 39.01538 12.36759 16396 ft 254 kts 166°
2026-05-06 19:01 38.99926 12.37645 16140 ft 250 kts 166°
2026-05-06 19:01 38.98343 12.38512 15897 ft 246 kts 167°
2026-05-06 19:01 38.96779 12.39366 15649 ft 242 kts 166°
2026-05-06 19:01 38.95241 12.40208 15404 ft 239 kts 167°
2026-05-06 19:02 38.93721 12.41040 15156 ft 236 kts 167°
2026-05-06 19:02 38.92223 12.41861 14912 ft 233 kts 167°
2026-05-06 19:02 38.90744 12.42672 14659 ft 230 kts 166°
2026-05-06 19:02 38.89281 12.43472 14415 ft 227 kts 166°
2026-05-06 19:03 38.87832 12.44262 14187 ft 225 kts 166°
2026-05-06 19:03 38.86402 12.45049 13950 ft 223 kts 165°
2026-05-06 19:03 38.84980 12.45887 13708 ft 221 kts 164°
2026-05-06 19:03 38.83616 12.46711 13447 ft 219 kts 163°
2026-05-06 19:04 38.82250 12.47543 13188 ft 216 kts 163°
2026-05-06 19:04 38.80881 12.48377 12918 ft 214 kts 163°
2026-05-06 19:04 38.79557 12.49180 12662 ft 212 kts 163°
2026-05-06 19:04 38.78211 12.49994 12406 ft 210 kts 163°
2026-05-06 19:05 38.76895 12.50787 12149 ft 208 kts 163°
2026-05-06 19:05 38.75589 12.51572 11892 ft 206 kts 163°
2026-05-06 19:05 38.74296 12.52350 11645 ft 205 kts 163°
2026-05-06 19:05 38.73013 12.53121 11406 ft 203 kts 163°
2026-05-06 19:06 38.71735 12.53886 11156 ft 202 kts 163°
2026-05-06 19:06 38.70467 12.54644 10910 ft 201 kts 162°
2026-05-06 19:06 38.69206 12.55399 10672 ft 200 kts 162°
2026-05-06 19:06 38.67951 12.56149 10429 ft 199 kts 162°
2026-05-06 19:07 38.66700 12.56899 10191 ft 198 kts 162°
2026-05-06 19:07 38.65879 12.57391 10047 ft 197 kts 161°
2026-05-06 19:07 38.64246 12.58369 9826 ft 189 kts 161°
2026-05-06 19:07 38.63070 12.59078 9693 ft 186 kts 161°
2026-05-06 19:08 38.61906 12.59780 9549 ft 185 kts 161°
2026-05-06 19:08 38.60746 12.60480 9425 ft 184 kts 161°
2026-05-06 19:08 38.59590 12.61180 9295 ft 184 kts 161°
2026-05-06 19:08 38.58432 12.61879 9164 ft 184 kts 161°
2026-05-06 19:09 38.57279 12.62572 9042 ft 183 kts 160°
2026-05-06 19:09 38.56125 12.63265 8919 ft 183 kts 160°
2026-05-06 19:09 38.54974 12.63951 8773 ft 182 kts 160°
2026-05-06 19:09 38.53827 12.64639 8658 ft 182 kts 160°
2026-05-06 19:10 38.52679 12.65325 8530 ft 182 kts 160°
2026-05-06 19:10 38.51561 12.66090 8339 ft 186 kts 143°
2026-05-06 19:10 38.50735 12.67386 8132 ft 188 kts 137°
2026-05-06 19:10 38.49736 12.68374 8013 ft 181 kts 154°
2026-05-06 19:11 38.48631 12.69141 7979 ft 181 kts 157°
2026-05-06 19:11 38.47514 12.69882 7984 ft 181 kts 157°
2026-05-06 19:11 38.46399 12.70626 7986 ft 181 kts 156°
2026-05-06 19:11 38.45287 12.71380 7983 ft 181 kts 156°
2026-05-06 19:12 38.44176 12.72145 7983 ft 181 kts 156°
2026-05-06 19:12 38.43071 12.72911 7983 ft 181 kts 156°
2026-05-06 19:12 38.41967 12.73679 7984 ft 180 kts 155°
2026-05-06 19:12 38.40876 12.74444 7980 ft 178 kts 154°
2026-05-06 19:13 38.39793 12.75210 7974 ft 178 kts 154°
2026-05-06 19:13 38.38708 12.75981 7978 ft 178 kts 154°
2026-05-06 19:13 38.37627 12.76748 7971 ft 178 kts 154°
2026-05-06 19:13 38.36543 12.77515 7964 ft 178 kts 154°
2026-05-06 19:14 38.35465 12.78279 7965 ft 177 kts 154°
2026-05-06 19:14 38.34387 12.79046 7970 ft 177 kts 153°
2026-05-06 19:14 38.33477 12.80118 7965 ft 184 kts 130°
2026-05-06 19:14 38.32705 12.81407 7968 ft 182 kts 137°
2026-05-06 19:15 38.31846 12.82589 7962 ft 181 kts 139°
2026-05-06 19:15 38.30974 12.83746 7956 ft 181 kts 139°
2026-05-06 19:15 38.30100 12.84905 7961 ft 181 kts 139°
2026-05-06 19:15 38.29229 12.86069 7957 ft 182 kts 139°
2026-05-06 19:16 38.28360 12.87237 7960 ft 182 kts 139°
2026-05-06 19:16 38.27494 12.88404 7959 ft 181 kts 139°
2026-05-06 19:16 38.26628 12.89575 7958 ft 181 kts 138°
2026-05-06 19:16 38.25766 12.90747 7954 ft 181 kts 138°
2026-05-06 19:17 38.25183 12.91542 7951 ft 181 kts 138°
2026-05-06 19:17 38.24326 12.92717 7960 ft 181 kts 138°
2026-05-06 19:17 38.23469 12.93900 7853 ft 182 kts 139°
2026-05-06 19:17 38.22622 12.95102 7592 ft 184 kts 135°
2026-05-06 19:18 38.21799 12.96385 7180 ft 192 kts 136°
2026-05-06 19:18 38.20821 12.97655 6651 ft 204 kts 140°
2026-05-06 19:18 38.19785 12.98763 6574 ft 185 kts 143°
2026-05-06 19:18 38.18767 12.99941 5667 ft 216 kts 139°
2026-05-06 19:19 38.17488 13.01212 4138 ft 256 kts 142°
2026-05-06 19:19 38.16313 13.02924 2904 ft 253 kts 109°
2026-05-06 19:19 38.16193 13.05126 1326 ft 271 kts 67°
2026-05-06 19:19 38.16951 13.07231 584 ft 252 kts 65°
2026-05-06 19:20 38.17605 13.09179 104 ft 225 kts 66°
2026-05-06 19:20 38.18046 13.10537 53 ft 56 kts 73°
2026-05-06 19:20 38.18060 13.10624 53 ft 0 kts 86°